User: anonymous   Login
Location: Caltech
(34.1382°N, 118.1253°W)
Time: 08:21:13
(UTC-08:00)
Language:

Iridium 49 - Orbit

View from above orbital plane
View from above orbital plane
View from above satellite
View from above satellite

Ground track
Ground track

The orbit data is extracted from the following two-line orbital elements,

1 25108U 97082E   14324.48753358  .00000547  00000-0  18839-3 0    00
2 25108 086.3951 288.2003 0002203 104.3310 035.0473 14.34220961885681
Epoch (UTC): 20 November 2014 11:42:02
Eccentricity: 0.0002203
inclination: 86.3951°
perigee height: 776 km
apogee height: 779 km
right ascension of ascending node: 288.2003°
argument of perigee: 104.3310°
revolutions per day: 14.34220961
mean anomaly at epoch: 35.0473°
orbit number at epoch: 88568

The dashed part of the orbit path shows where the satellite is in the earth's shadow,  

DLR